Weather History for Henderson, NV

Change the Weather History Date:

Sunday, March 17, 2013

  Actual Average (KLAS) Record (KLAS)
Temperature  
Mean Temperature 69 °F 60 °F  
Max Temperature 81 °F 71 °F 91 °F (2007)
Min Temperature 57 °F 50 °F 30 °F (1955)
Degree Days  
Heating Degree Days 0 6  
Month to date heating degree days 122  
Since 1 July heating degree days 1813  
Cooling Degree Days 4 1  
Month to date cooling degree days 9  
Year to date cooling degree days 10  
Growing Degree Days 19 (Base 50)    
Moisture  
Dew Point 12 °F    
Average Humidity 13    
Maximum Humidity 27    
Minimum Humidity 5    
Precipitation  
Precipitation 0.00 in 0.01 in 0.18 in (2012)
Month to date precipitation 0.30  
Year to date precipitation 1.60  
Snow  
Snow 0.00 in 0.00 in 0.00 in (2013)
Month to date snowfall 0.0  
Since 1 July snowfall 0.3  
Snow Depth -    
Sea Level Pressure  
Sea Level Pressure 29.83 in    
Wind  
Wind Speed 8 mph (SW)    
Max Wind Speed 14 mph    
Max Gust Speed 18 mph    
Visibility 10 miles    
Events      
T = Trace of Precipitation, MM = Missing Value Source: NWS Daily Summary

Daily Weather History Graph

Daily Weather History Graph

Search for Another Location

Airport:

Trip Planner

Search our weather history database for the weather conditions in past years. The results will help you decide how hot, cold, wet, or windy it might be!

Date:

Astronomy

Mar. 17, 2013 Rise Set
Actual Time 6:47 AM PDT 6:50 PM PDT
Civil Twilight 6:22 AM PDT 7:15 PM PDT
Nautical Twilight 5:52 AM PDT 7:45 PM PDT
Astronomical Twilight 5:22 AM PDT 8:15 PM PDT
Moon 10:14 AM PDT (3/17) No Moon Set
Length of Visible Light 12h 53m
Length of Day
12h 02m
Waxing Crescent, 32% of the Moon is Illuminated
Mar 17
Waxing Crescent
Mar 19
First Quarter
Mar 27
Full
Apr 2
Last Quarter
Apr 10
New

Hourly Weather History & Observations

Time (PDT) Temp. Dew Point Humidity Pressure Visibility Wind Dir Wind Speed Gust Speed Precip Events Conditions
12:56 AM 65.8 °F 24.1 °F 21% 29.71 in 10.0 mi SSW 11.5 mph - N/A   Clear
1:56 AM 64.9 °F 25.2 °F 22% 29.75 in 10.0 mi South 11.5 mph - N/A   Clear
2:56 AM 66.9 °F 15.1 °F 14% 29.77 in 10.0 mi North 8.1 mph - N/A   Clear
3:56 AM 59.0 °F 24.1 °F 26% 29.79 in 10.0 mi South 6.9 mph - N/A   Clear
4:56 AM 59.9 °F 26.1 °F 27% 29.81 in 10.0 mi Variable 3.5 mph - N/A   Clear
5:56 AM 57.9 °F 23.0 °F 26% 29.84 in 10.0 mi Calm Calm - N/A   Clear
6:56 AM 59.0 °F 19.0 °F 21% 29.87 in 10.0 mi NE 3.5 mph - N/A   Clear
7:56 AM 57.9 °F 23.0 °F 26% 29.88 in 10.0 mi SW 10.4 mph - N/A   Clear
8:56 AM 66.9 °F 17.1 °F 15% 29.91 in 10.0 mi West 6.9 mph - N/A   Clear
9:56 AM 70.0 °F 10.0 °F 10% 29.91 in 10.0 mi NNW 13.8 mph 18.4 mph N/A   Clear
10:56 AM 70.9 °F 10.0 °F 10% 29.90 in 10.0 mi NNW 6.9 mph - N/A   Clear
11:56 AM 72.0 °F 8.1 °F 8% 29.89 in 10.0 mi Calm Calm - N/A   Clear
12:56 PM 74.8 °F 6.1 °F 7% 29.87 in 10.0 mi West 4.6 mph - N/A   Clear
1:56 PM 77.9 °F 7.2 °F 7% 29.84 in 10.0 mi Variable 6.9 mph - N/A   Clear
2:56 PM 79.0 °F 4.1 °F 6% 29.82 in 10.0 mi Variable 6.9 mph - N/A   Clear
3:56 PM 79.0 °F 4.1 °F 6% 29.81 in 10.0 mi NW 9.2 mph - N/A   Clear
4:56 PM 81.0 °F 4.1 °F 5% 29.80 in 10.0 mi East 4.6 mph - N/A   Clear
5:56 PM 79.0 °F 3.0 °F 5% 29.80 in 10.0 mi Calm Calm - N/A   Clear
6:56 PM 74.8 °F -1.8 °F 5% 29.81 in 10.0 mi West 9.2 mph - N/A   Clear
7:56 PM 72.0 °F -1.8 °F 5% 29.82 in 10.0 mi SW 8.1 mph - N/A   Clear
8:56 PM 66.9 °F 5.0 °F 9% 29.83 in 10.0 mi SW 11.5 mph - N/A   Clear
9:56 PM 64.9 °F 8.1 °F 11% 29.84 in 10.0 mi SSE 5.8 mph - N/A   Clear
10:56 PM 63.9 °F 9.1 °F 12% 29.85 in 10.0 mi South 9.2 mph - N/A   Clear
11:56 PM 61.9 °F 10.0 °F 13% 29.87 in 10.0 mi SSE 10.4 mph - N/A   Clear